Volver al catálogo

CZ-6A DEB

ActivoSSO
NORAD 56675·DEBRIS·🇨🇳 China

Lanzado Nov 11, 2022 desde Taiyuan Satellite Launch Center

Loading…

Próximos Pases (próximas 24 horas)

TLE

ActualizadoSource: Space-Track

Época: Sep 14, 2026, 11:14 UTC

1 56675U 22151AHB 26257.46827548  .00000631  00000-0  36802-3 0  9998
2 56675  98.8819 260.9646 0077791  44.2871 316.4489 14.10595789179476

Sigue CZ-6A DEB en tiempo real con AllMySat

Download on the App Store